Flag for Germany Weather past 2 weeks in Emmerich am Rhein, North Rhine-Westphalia, Germany

Now
66 °F

Sunny.


Feels Like: 66 °F
Forecast: 51 / 74 °F
Wind: 3 mph from North

Location: Niederrhein

Current Time: Jul 31, 2015 at 7:47:55 PM

Latest Report: Jul 31, 2015 at 6:50 PM


Visibility: 10 mi

Pressure: 30.07 "Hg

Humidity: 40%

Dew point: 41 °F

Location of Emmerich am RheinLocation

Historic Weather in Emmerich am Rhein — Graph

°F

Emmerich am Rhein temperature yesterday

Maximum temperature yesterday: 64 °F (at 12:20 PM)
Minimum temperature yesterday: 52 °F (at 4:50 AM)
Average temperature yesterday: 58 °F

Past Weeks' High & Low Weather Summary

 TemperatureHumidityPressure
High88 °F (Jul 17, 3:20 PM)100% (Jul 19, 6:20 AM)30.15 "Hg (Jul 19, 6:20 AM)
Low45 °F (Jul 31, 5:20 AM)36% (Jul 18, 4:50 PM)29.47 "Hg (Jul 25, 6:20 AM)
Average66 °F71%29.87 "Hg
* Reported Jul 16 6:20 PM — Jul 31 6:20 PM, Emmerich am Rhein, Weather by CustomWeather, © 2015

Note: Actual official high and low records may vary slightly from our data, if they occured in-between our weather recording intervals... More about our weather records

Advertising

Emmerich am Rhein weather history for previous 24 hours

 ConditionsComfort  
Time TempWeatherWind HumidityBarometerVisibility
6:20 PM
Fri, Jul 31
68 °FSunny.3 mph38%30.07 "Hg10 mi
5:50 PM68 °FSunny.1 mph40%30.07 "Hg10 mi
5:20 PM66 °FSunny.6 mph40%30.09 "Hg10 mi
4:50 PM68 °FSunny.No wind38%30.09 "Hg10 mi
4:20 PM66 °FPassing clouds.6 mph40%30.09 "HgN/A
3:50 PM68 °FSunny.5 mph43%30.09 "Hg10 mi
3:20 PM66 °FSunny.3 mph43%30.09 "Hg10 mi
2:50 PM66 °FSunny.2 mph40%30.12 "Hg10 mi
2:20 PM64 °FSunny.3 mph49%30.12 "Hg10 mi
1:50 PM64 °FScattered clouds.5 mph43%30.12 "HgN/A
1:20 PM64 °FScattered clouds.5 mph43%30.12 "HgN/A
12:50 PM66 °FScattered clouds.3 mph46%30.15 "HgN/A
12:20 PM63 °FScattered clouds.5 mph49%30.15 "HgN/A
11:50 AM61 °FScattered clouds.1 mph55%30.15 "HgN/A
11:20 AM61 °FScattered clouds.2 mph55%30.15 "HgN/A
10:50 AM61 °FScattered clouds.2 mph55%30.15 "HgN/A
10:20 AM61 °FScattered clouds.2 mph55%30.15 "HgN/A
9:20 AM57 °FSunny.No wind72%30.15 "Hg10 mi
8:50 AM55 °FSunny.2 mph77%30.15 "Hg10 mi
8:20 AM52 °FPassing clouds.5 mph88%30.15 "HgN/A
7:50 AM50 °FClear.2 mph82%30.15 "Hg10 mi
7:20 AM48 °FClear.2 mph94%30.12 "Hg10 mi
6:50 AM46 °FClear.No wind93%30.12 "Hg10 mi
5:50 AM45 °FClear.No wind93%30.12 "Hg10 mi
5:20 AM45 °FClear.No wind93%30.12 "Hg10 mi
4:50 AM46 °FClear.No wind93%30.12 "Hg10 mi
11:50 PM
Thu, Jul 30
52 °FClear.No wind82%30.09 "Hg10 mi
11:20 PM54 °FSunny.1 mph77%30.09 "Hg10 mi
10:50 PM55 °FSunny.2 mph72%30.09 "Hg10 mi
10:20 PM57 °FSunny.2 mph67%30.09 "Hg10 mi
9:50 PM57 °FSunny.3 mph67%30.09 "Hg10 mi
9:20 PM59 °FPassing clouds.6 mph63%30.07 "HgN/A
8:50 PM61 °FPassing clouds.5 mph68%30.07 "HgN/A
8:20 PM61 °FPassing clouds.5 mph68%30.07 "HgN/A
7:50 PM61 °FPassing clouds.5 mph63%30.04 "HgN/A
7:20 PM61 °FPassing clouds.6 mph68%30.04 "HgN/A
Weather by CustomWeather, © 2015

See weather overviewHow to use our weather pages